Flag for U.S.A. Weather past 2 weeks in Mansfield, Texas, U.S.A.

Now
36 °F

Overcast.


Feels Like: 26 °F
Forecast: 23 / 34 °F
Wind: 15 mph from North

Location: Burleson-Rendon

Current Time: Feb 26, 2015 at 6:51:54 PM

Latest Report: Feb 26, 2015 at 4:48 PM


Visibility: 10 mi

Pressure: 30.33 "Hg

Humidity: 52%

Dew point: 19 °F

Location of MansfieldLocation

Historic Weather in Mansfield — Graph

°F

Mansfield temperature yesterday

Maximum temperature yesterday: 54 °F (at 3:47 PM)
Minimum temperature yesterday: 33 °F (at 5:55 AM)
Average temperature yesterday: 38 °F

Past Weeks' High & Low Weather Summary

 TemperatureHumidityPressure
High79 °F (Feb 14, 1:52 PM)100% (Feb 18, 6:48 AM)30.57 "Hg (Feb 18, 6:48 AM)
Low26 °F (Feb 24, 3:15 AM)21% (Feb 14, 2:54 PM)29.69 "Hg (Feb 20, 8:35 PM)
Average44 °F75%30.17 "Hg
* Reported Feb 11 4:48 PM — Feb 26 4:48 PM, Mansfield, Weather by CustomWeather, © 2015

Note: Actual official high and low records may vary slightly from our data, if they occured in-between our weather recording intervals... More about our weather records

Advertising

Mansfield weather history for previous 24 hours

 ConditionsComfort  
Time TempWeatherWind HumidityBarometerVisibility
4:48 PM
Thu, Feb 26
36 °FOvercast.15 mph52%30.33 "Hg10 mi
3:54 PM36 °FOvercast.15 mph56%30.30 "Hg10 mi
2:50 PM36 °FOvercast.13 mph52%30.31 "Hg10 mi
1:48 PM36 °FOvercast.24 mph56%30.30 "Hg10 mi
12:46 PM34 °FOvercast.16 mph60%30.32 "Hg10 mi
11:52 AM34 °FMore clouds than sun.21 mph65%30.33 "Hg10 mi
10:50 AM32 °FMore clouds than sun.22 mph75%30.31 "Hg10 mi
9:46 AM32 °FMore clouds than sun.22 mph75%30.27 "Hg7 mi
8:55 AM32 °FMostly cloudy.21 mph80%30.27 "Hg2 mi
7:46 AM36 °FOvercast.17 mph81%30.19 "Hg10 mi
6:50 AM37 °FOvercast.20 mph87%30.13 "Hg7 mi
6:15 AM36 °FFog.15 mph94%30.10 "Hg4 mi
5:55 AM35 °FFog.8 mph95%30.09 "Hg3 mi
5:35 AM33 °FFog.7 mph95%30.07 "Hg2 mi
5:15 AM33 °FFog.6 mph96%30.06 "Hg2 mi
4:55 AM34 °FFog.No wind94%30.04 "Hg3 mi
4:15 AM33 °FFog.No wind95%30.02 "Hg3 mi
3:55 AM33 °FFog.5 mph96%30.00 "Hg3 mi
3:15 AM33 °FFog.No wind96%29.97 "Hg2 mi
2:55 AM33 °FFog.No wind95%29.97 "Hg4 mi
2:35 AM33 °FFog.No wind95%29.96 "Hg4 mi
2:15 AM33 °FFog.No wind95%29.95 "Hg4 mi
1:55 AM33 °FFog.3 mph96%29.95 "Hg4 mi
1:35 AM34 °FFog.3 mph91%29.95 "Hg5 mi
1:15 AM35 °FFog.No wind90%29.94 "Hg5 mi
12:55 AM34 °FFog.No wind91%29.94 "Hg5 mi
12:15 AM36 °FClear.No wind89%29.92 "Hg7 mi
11:55 PM
Wed, Feb 25
36 °FClear.5 mph89%29.92 "Hg7 mi
11:15 PM36 °FFog.5 mph89%29.92 "Hg5 mi
10:55 PM37 °FFog.3 mph89%29.91 "Hg5 mi
9:15 PM40 °FClear.3 mph82%29.89 "Hg10 mi
8:55 PM41 °FClear.3 mph81%29.89 "Hg7 mi
8:35 PM42 °FClear.5 mph78%29.88 "Hg10 mi
8:15 PM42 °FClear.3 mph76%29.87 "Hg7 mi
7:55 PM42 °FClear.No wind78%29.87 "Hg7 mi
7:35 PM43 °FClear.3 mph75%29.85 "Hg7 mi
7:15 PM45 °FClear.3 mph73%29.85 "Hg7 mi
6:46 PM46 °FClear.No wind71%29.84 "Hg10 mi
Weather by CustomWeather, © 2015

See weather overviewHow to use our weather pages